User: anonymous   Login
Location: Unspecified
(0.0000°N, 0.0000°E)
Time: 09:41:30
(UTC+00:00)
Language:

OPTUS D1 - Orbit

View from above orbital plane
View from above orbital plane
View from above satellite
View from above satellite

Ground track
Ground track

The orbit data is extracted from the following two-line orbital elements,

1 29495U 06043B   14326.23529456 -.00000101  00000-0  10000-3 0  6482
2 29495 000.0395 022.8090 0003437 207.8321 075.2393 01.00271979 29779
Epoch (UTC): 22 November 2014 05:38:49
Eccentricity: 0.0003437
inclination: 0.0395°
perigee height: 35771 km
apogee height: 35800 km
right ascension of ascending node: 22.8090°
argument of perigee: 207.8321°
revolutions per day: 1.00271979
mean anomaly at epoch: 75.2393°
orbit number at epoch: 2977

The dashed part of the orbit path shows where the satellite is in the earth's shadow,  

DLR